Date String (YYYY-MM-DD hh:mm:ss) UTC,Instrument flags,Ambient pressure (hPa),Sample flow (lpm),Bypass flow (lpm),Sample temperature (°C),Ambient temperature (°C),ASC tube jacket temperature (°C),LED temperature (°C),Box temperature (°C),Sample RH (%),Span deviation,Mass concentration (μg/m³),Mass concentration (μg/m³),Mass concentration (μg/m³)
DateTimeUTC,F1_M11,P_M11,Q1_M11,Q2_M11,T1_M11,T2_M11,T3_M11,T4_M11,T5_M11,U1_M11,ZSPAN_M11,X0_M11,X2_M11,X1_M11
2022-01-03 10:00:00,,0827.2,5.00,0.00,22.1,22.1,00.0,31.0,23.9,07.8,0000.0,0000.01,0000.00,0000.00
2022-01-03 10:01:00,,0827.2,5.01,0.00,22.1,21.9,00.0,31.0,23.8,08.4,0000.0,0000.00,0000.00,0000.00
2022-01-03 10:02:00,,0827.2,4.99,0.00,22.1,21.7,00.0,31.0,23.7,08.4,0000.0,0000.00,0000.00,0000.00
2022-01-03 10:03:00,,0827.2,4.99,0.00,22.0,21.6,00.0,31.0,23.7,08.8,0000.0,0000.00,0000.00,0000.00
2022-01-03 10:04:00,,0827.2,5.00,0.00,22.0,21.5,00.0,31.0,23.7,08.7,0000.0,0000.20,0000.00,0000.00
2022-01-03 10:05:00,,0827.2,5.00,0.00,22.0,21.4,00.0,31.0,23.7,08.4,0000.0,0000.77,0000.01,0000.00
2022-01-03 10:06:00,,0827.2,5.01,0.00,22.0,21.4,00.0,31.0,23.6,08.1,0000.0,0000.77,0000.01,0000.00
2022-01-03 10:07:00,,0827.2,5.00,0.00,21.9,21.3,00.0,31.0,23.6,08.0,0000.0,0000.77,0000.01,0000.00
2022-01-03 10:08:00,,0827.1,4.99,0.00,21.9,21.3,00.0,31.0,23.6,07.7,0000.0,0000.77,0000.01,0000.00
2022-01-03 10:09:00,,0827.2,5.00,0.00,21.9,21.3,00.0,31.0,23.5,08.2,0000.0,0000.77,0000.01,0000.00
2022-01-03 10:10:00,,0827.1,4.99,0.00,21.9,21.1,00.0,31.0,23.5,07.7,0000.0,0000.79,0000.01,0000.00
2022-01-03 10:11:00,,0827.0,5.01,0.00,21.8,21.1,00.0,31.0,23.5,08.0,0000.0,0000.82,0000.02,0000.00
2022-01-03 10:12:00,,0826.9,4.99,0.00,21.8,21.0,00.0,30.9,23.4,07.8,0000.0,0000.82,0000.02,0000.00
2022-01-03 10:13:00,,0826.9,5.00,0.00,21.8,21.0,00.0,30.9,23.3,08.0,0000.0,0000.82,0000.02,0000.00
2022-01-03 10:14:00,,0827.0,5.01,0.00,21.7,21.0,00.0,30.9,23.3,07.7,0000.0,0000.82,0000.02,0000.00
2022-01-03 10:15:00,,0826.9,5.00,0.00,21.7,21.0,00.0,30.9,23.3,07.8,0000.0,0000.60,0000.02,0000.00
2022-01-03 10:16:00,,0827.0,5.01,0.00,21.7,21.0,00.0,30.9,23.3,08.3,0000.0,0000.10,0000.03,0000.00
2022-01-03 10:17:00,,0827.0,4.99,0.00,21.6,20.9,00.0,30.8,23.2,08.3,0000.0,0000.10,0000.03,0000.00
2022-01-03 10:18:00,,0826.8,5.02,0.00,21.6,20.9,00.0,30.8,23.2,08.3,0000.0,0000.10,0000.03,0000.00
2022-01-03 10:19:00,,0826.8,4.99,0.00,21.7,21.5,00.0,30.8,23.4,08.3,0000.0,0000.85,0000.03,0000.00
2022-01-03 10:20:00,,0826.8,4.99,0.00,21.9,22.5,00.0,30.9,23.8,08.3,0000.0,0001.23,0000.03,0000.00
2022-01-03 10:21:00,,0826.8,5.00,0.00,22.0,22.9,00.0,30.9,24.0,08.5,0000.0,0001.21,0000.02,0000.00
2022-01-03 10:22:00,,0826.9,5.00,0.00,22.0,22.5,00.0,30.9,23.9,08.7,0000.0,0001.18,0000.01,0000.00
2022-01-03 10:23:00,,0827.2,5.00,0.00,22.0,22.2,00.0,30.9,23.7,08.8,0000.0,0001.18,0000.02,0000.00
2022-01-03 10:24:00,,0826.8,5.00,0.00,21.9,21.9,00.0,30.9,23.6,08.6,0000.0,0001.19,0000.02,0000.00
2022-01-03 10:25:00,,0826.8,5.00,0.00,21.9,21.7,00.0,30.9,23.4,08.8,0000.0,0001.19,0000.02,0000.00
2022-01-03 10:26:00,,0826.9,4.99,0.00,21.8,21.4,00.0,30.9,23.3,08.8,0000.0,0001.18,0000.01,0000.00
2022-01-03 10:27:00,,0827.0,5.00,0.00,21.7,21.3,00.0,30.9,23.3,08.7,0000.0,0001.15,0000.01,0000.00
2022-01-03 10:28:00,,0826.8,5.00,0.00,21.7,21.1,00.0,30.9,23.2,09.0,0000.0,0001.15,0000.01,0000.00
2022-01-03 10:29:00,,0826.8,5.00,0.00,21.6,20.9,00.0,30.8,23.1,09.2,0000.0,0001.15,0000.01,0000.00
2022-01-03 10:30:00,,0826.9,5.01,0.00,21.6,20.8,00.0,30.8,23.1,09.0,0000.0,0000.40,0000.01,0000.00
2022-01-03 10:31:00,,0826.6,4.99,0.00,21.5,20.7,00.0,30.8,23.1,09.3,0000.0,0000.06,0000.02,0000.00
2022-01-03 10:32:00,,0826.6,5.01,0.00,21.5,20.6,00.0,30.8,23.0,09.1,0000.0,0000.06,0000.02,0000.01
2022-01-03 10:33:00,,0826.7,4.99,0.00,21.4,20.5,00.0,30.7,22.9,09.2,0000.0,0000.06,0000.02,0000.01
2022-01-03 10:34:00,,0826.7,5.00,0.00,21.4,20.4,00.0,30.7,22.8,09.4,0000.0,0000.06,0000.02,0000.01
2022-01-03 10:35:00,,0826.6,4.99,0.00,21.4,20.8,00.0,30.7,23.0,09.1,0000.0,0000.05,0000.02,0000.00
2022-01-03 10:36:00,,0826.7,5.01,0.00,21.5,21.7,00.0,30.7,23.3,08.8,0000.0,0000.06,0000.02,0000.00
2022-01-03 10:37:00,,0826.7,4.99,0.00,21.7,22.6,00.0,30.7,23.7,08.2,0000.0,0000.07,0000.02,0000.01
2022-01-03 10:38:00,,0826.6,5.00,0.00,21.8,22.6,00.0,30.8,23.7,08.0,0000.0,0000.07,0000.02,0000.01
2022-01-03 10:39:00,,0826.5,5.00,0.00,21.8,22.3,00.0,30.8,23.6,07.9,0000.0,0000.07,0000.02,0000.01
2022-01-03 10:40:00,,0826.5,5.00,0.00,21.8,22.0,00.0,30.8,23.6,07.4,0000.0,0000.07,0000.02,0000.01
2022-01-03 10:41:00,,0826.5,5.01,0.00,21.8,21.8,00.0,30.8,23.5,07.7,0000.0,0000.05,0000.02,0000.01
2022-01-03 10:42:00,,0826.5,5.00,0.00,21.7,21.5,00.0,30.8,23.4,08.0,0000.0,0000.13,0000.02,0000.00
2022-01-03 10:43:00,,0826.5,4.99,0.00,21.7,21.3,00.0,30.8,23.3,07.7,0000.0,0000.15,0000.02,0000.00
2022-01-03 10:44:00,,0826.5,4.99,0.00,21.7,21.1,00.0,30.8,23.2,07.8,0000.0,0000.15,0000.02,0000.00
2022-01-03 10:45:00,,0826.5,5.01,0.00,21.6,21.1,00.0,30.8,23.2,07.8,0000.0,0000.15,0000.02,0000.00
2022-01-03 10:46:00,,0826.6,4.99,0.00,21.6,21.0,00.0,30.7,23.2,08.2,0000.0,0000.15,0000.02,0000.00
2022-01-03 10:47:00,,0826.6,4.99,0.00,21.6,20.9,00.0,30.7,23.1,08.4,0000.0,0000.14,0000.01,0000.00
2022-01-03 10:48:00,,0826.6,5.01,0.00,21.5,20.8,00.0,30.7,23.1,08.9,0000.0,0000.13,0000.01,0000.00
2022-01-03 10:49:00,,0826.6,4.99,0.00,21.5,20.8,00.0,30.7,23.0,09.0,0000.0,0000.13,0000.01,0000.00
2022-01-03 10:50:00,,0826.7,4.99,0.00,21.4,20.7,00.0,30.7,22.9,09.0,0000.0,0000.13,0000.01,0000.00
2022-01-03 10:51:00,,0826.6,5.01,0.00,21.4,20.6,00.0,30.6,22.9,09.2,0000.0,0000.13,0000.01,0000.00
2022-01-03 10:52:00,,0826.5,5.00,0.00,21.3,20.6,00.0,30.6,22.9,08.5,0000.0,0000.13,0000.01,0000.00
2022-01-03 10:53:00,,0826.6,5.01,0.00,21.4,21.3,00.0,30.6,23.1,08.4,0000.0,0000.04,0000.00,0000.00
2022-01-03 10:54:00,,0826.6,4.99,0.00,21.6,22.2,00.0,30.7,23.5,08.3,0000.0,0000.01,0000.00,0000.00
2022-01-03 10:55:00,,0826.6,5.00,0.00,21.8,22.8,00.0,30.7,23.7,07.9,0000.0,0000.03,0000.01,0000.00
2022-01-03 10:56:00,,0826.5,5.01,0.00,21.8,22.5,00.0,30.7,23.7,08.0,0000.0,0000.07,0000.03,0000.01
2022-01-03 10:57:00,,0826.6,5.00,0.00,21.8,22.2,00.0,30.7,23.5,08.3,0000.0,0000.08,0000.04,0000.01
2022-01-03 10:58:00,,0826.7,4.99,0.00,21.7,21.9,00.0,30.7,23.4,09.1,0000.0,0000.09,0000.04,0000.01
2022-01-03 10:59:00,,0826.6,5.00,0.00,21.7,21.6,00.0,30.7,23.3,09.5,0000.0,0000.39,0000.04,0000.01
